Regional Weather Roundup
Issued by NWS

Home | Current Version | Previous Version | Graphics & Text | Print | Product List | Glossary On
Versions: 1 2 3 4 5 6 7 8 9 10 11 12 13 14 15 16 17 18 19 20 21 22 23 24 25 26 27 28 29 30 31 32 33 34 35 36 37 38 39 40 41 42 43 44 45 46 47 48 49 50
000
ASUS43 KMKX 290300
RWRWI

WISCONSIN REGIONAL WEATHER ROUNDUP
NATIONAL WEATHER SERVICE MILWAUKEE/SULLIVAN WI
900 PM CST SUN DEC 28 2014

NOTE: "FAIR" INDICATES FEW OR NO CLOUDS BELOW 12,000 FEET WITH NO
SIGNIFICANT WEATHER AND/OR OBSTRUCTIONS TO VISIBILITY.

WIZ001-002-006>008-014>016-023>028-290400-
NORTHWEST WISCONSIN

CITY           SKY/WX    TMP DP  RH WIND       PRES   REMARKS
SUPERIOR ARPT  CLEAR      7  -1  69 W5        30.36R WCI  -2
ASHLAND        CLEAR      1  -4  79 SW6       30.32R WCI -10
HAYWARD        CLEAR     -4  -8  83 CALM      30.29R
SIREN          CLEAR      3  -2  81 N7        30.31R WCI -10
CUMBERLAND     FAIR       7  -4  61 N6        30.27R WCI  -3
RICE LAKE      FAIR       8  -2  64 N8        30.28S WCI  -4
CHETEK         FAIR       3  -1  86 CALM      30.28R
LADYSMITH      CLEAR      1  -2  84 N7        30.28R WCI -11
EAU CLAIRE     NOT AVBL
MENOMONIE      CLEAR      7   4  89 CALM      30.28R
NEW RICHMOND   CLEAR      3  -4  73 N8        30.29S WCI -10
OSCEOLA        CLEAR      0  -4  85 CALM      30.34R
$$

WIZ003>005-009-010-017-018-290400-
NORTH CENTRAL WISCONSIN

CITY           SKY/WX    TMP DP  RH WIND       PRES   REMARKS
MANITOWISH WTR PTCLDY    -8 -12  83 CALM      30.21R
ARBOR VITAE    CLEAR     -1  -5  84 CALM      30.22R
WOODRUFF       CLEAR     -1  -5  84 CALM      30.22R
RHINELANDER    CLEAR      3   1  91 CALM      30.20F
EAGLE RIVER    CLEAR     -3  -8  78 CALM      30.20S
LAND O LAKES   CLOUDY    -3  -6  84 CALM      30.20S
PHILLIPS       CLEAR     -5  -8  86 CALM      30.23S
TOMAHAWK       FAIR       0  -2  88 CALM      30.23S
MEDFORD        CLEAR    N/A N/A N/A N5        30.21S
MERRILL        CLEAR      7   4  87 N3        30.22S
$$

WIZ029-030-035-036-043>047-290400-
CENTRAL WISCONSIN

CITY           SKY/WX    TMP DP  RH WIND       PRES   REMARKS
WAUSAU         CLEAR     10   6  84 N3        30.23R
MOSINEE        NOT AVBL
MARSHFIELD     CLEAR      7   4  87 NW6       30.24R FOG     WCI  -3
STEVENS POINT  CLEAR     14  11  90 CALM      30.24R
WAUPACA        CLEAR     21  16  79 NW6       30.24S WCI  14
WAUTOMA        NOT AVBL
WISC RAPIDS    CLEAR     16  11  80 NW6       30.27R WCI   7
CAMP DOUGLAS   NOT AVBL
$$

WIZ011>013-019>022-031-037>040-048>050-290400-
NORTHEAST WISCONSIN

CITY           SKY/WX    TMP DP  RH WIND       PRES   REMARKS
ANTIGO         CLEAR      3   1  93 N6        30.20S WCI  -8
SHAWANO        MOCLDY    21  13  69 W10G17    30.25R WCI  10
OCONTO         CLEAR     19  10  68 N9        30.25S WCI   8
STURGEON BAY   PTCLDY    19  10  68 N13       30.25R WCI   7
GREEN BAY      CLEAR     22  15  75 N6        30.25R WCI  14
MANITOWOC      NOT AVBL
APPLETON       MOCLDY    21  14  73 N9        30.23R WCI  11
CLINTONVILLE   CLEAR     21  14  73 NW6       30.25R WCI  14
OSHKOSH        CLOUDY    25  17  72 N8        30.24R WCI  16
$$

WIZ032>034-041-042-053>061-290400-
SOUTHWEST WISCONSIN

CITY           SKY/WX    TMP DP  RH WIND       PRES   REMARKS
LA CROSSE      CLEAR     15  11  83 NW5       30.28R WCI   8
SPARTA         CLEAR     17  14  89 CALM      30.27S
VIROQUA        PTCLDY    21  18  88 N9        30.22R WCI  10
BOSCOBEL       CLOUDY    22  18  85 CALM      30.26R FOG
PRAIRIE DU CHI CLOUDY    26  19  77 NW3       30.25R
PLATTEVILLE    PTCLDY    25  20  83 CALM      30.22R
$$

WIZ056-057-062-063-064-067-068-290400-
SOUTH CENTRAL WISCONSIN

CITY           SKY/WX    TMP DP  RH WIND       PRES   REMARKS
REEDSBURG      CLOUDY    24  20  82 N13       30.24R WCI  13
BARABOO/DELLS  CLOUDY    25  19  78 N9        30.23R WCI  16
LONE ROCK      NOT AVBL
MINERAL POINT  MOCLDY    27  21  80 CALM      30.21R
MADISON        CLOUDY    29  19  66 CALM      30.23R
MIDDLETON      CLOUDY    30  22  70 CALM      30.22R
WATERTOWN      CLOUDY    24  22  93 CALM      30.21R
MONROE         MOCLDY    27  19  74 NW6       30.20R WCI  20
JANESVILLE     CLEAR     25  19  80 NW7       30.22  WCI  17
$$

WIZ051-052-058>065-066-070>072-290400-
SOUTHEAST WISCONSIN

CITY           SKY/WX    TMP DP  RH WIND       PRES   REMARKS
MILWAUKEE      FAIR      26  17  68 N5        30.23R WCI  20
WAUKESHA       CLEAR     21  18  86 CALM      30.23R
MILWAUKEE/TIMM PTCLDY    21  18  86 CALM      30.23R
RACINE         CLEAR     26  17  68 NW3       30.24R
BURLINGTON     CLEAR     19  18  94 CALM      30.22R
KENOSHA        PTCLDY    25  19  78 N3        30.23R
FOND DU LAC    CLOUDY    26  18  71 N9        30.24R WCI  17
SHEBOYGAN      CLOUDY    27  20  75 N7        30.23R WCI  19
WEST BEND      CLOUDY    27  21  80 CALM      30.21R
JUNEAU         CLOUDY    27  21  76 NW3       30.22R
$$

LSZ147-162-290400-
LAKE SUPERIOR

STATION/POSITION TIME  TEMP    WIND        PRES    WAVE
                       AIR SEA DIR/SP/G            HT/PER
                 (UTC) (F)     (DEG/KT/KT) (MB)    (FT/S)
DEVILS ISLAND    0200   12     300/ 15/ 18 1027.7R
PORT WING        0200   14     310/ 15/ 18 1027.1R
SAXON HARBOR     0200    7     200/  5/  7 1026.1R
$$

LMZ867-665-643>646-290400-
LAKE MICHIGAN

STATION/POSITION TIME  TEMP    WIND        PRES    WAVE
                       AIR SEA DIR/SP/G            HT/PER
                 (UTC) (F)     (DEG/KT/KT) (MB)    (FT/S)
CHAMBERS ISLAND  0200   19     300/ 14/ 21 1024.4R
NORTHPORT PIER   0208   21     320/ 17/ 25 1024.0R
SISTER BAY       0213          340/ 22/ 26   N/A
ALGOMA LAKESHORE 0245          340/ 12/ 16   N/A
KEWAUNEE LAKESHO 0200   24     340/  8/ 13 1022.7R
SHEBOYGAN LAKESH 0200   28 36  330/  7/  8 1024.4R
PORT WASHINGTON  0200   27     300/  2/  3 1024.0
MILWAUKEE LAKESH 0200   29     340/  6/  8   N/A
KENOSHA   LAKESH 0200   29     340/  4/  6 1023.0R
$$

TC  - TEMPERATURE IN CELSIUS
VSB - VISIBILITY IN STATUTE MILES
WCI - WIND CHILL INDEX
HX  - HEAT INDEX



USA.gov is the U.S. government's official web portal to all federal, state and local government web resources and services.